STARLINK-3210 (49755 NORAD) Tracking and Keplerian Element Data
This shows tracking and keplerian element data for the satellite.
Feedback or suggestion? Click here.
Element | Value |
Catalog | 49755 |
Name | STARLINK-3210 |
Epoch Orbit | 2698 |
Epoch Day | 140.91667824 |
Epoch Year | 2022 |
RAAN | 263.5588 |
Inclination | 53.2169 |
Eccentricity | 0.0002971 |
Argument of Perigee | 24.7268 |
Mean Anonmoly | 203.3213 |
Mean Motion | 15.08856072 |
Decay Rate | -0.00029397 |
L1 | 1 49755U 21115AH 22140.91667824 -.00029397 00000+0 -18355-2 0 9997 |
L2 | 2 49755 53.2169 263.5588 0002971 24.7268 203.3213 15.08856072 26984 |
Live tracking and technical data element details for STARLINK-3210 (NORAD 49755). STARLINK-3210 can be tracked NOW for your location showing map with azimuth and elevation plus other details from your city location.
Track the satellite on the map from your city or location and see movement details for azimuth, elevation, latitude, longitude, range, height, and movement on the map or in text.
IsCatalogInMostPopularTable: catalog: 49755, numindb: 23
Update: records affected: 1
GetName: 49755 STARLINK-3210
Hit Count: updated at: Mon, 23 May 2022 21:02:21 GMT